Volver al catálogo

COSMOS 2251 DEB

ActivoVLEO
NORAD 34856·DEBRIS·🇷🇺 Russia

Lanzado Jun 16, 1993 desde Plesetsk Cosmodrome

Loading…

Próximos Pases (próximas 24 horas)

TLE

EnvejeciendoSource: Space-Track

Época: Sep 13, 2026, 00:15 UTC

1 34856U 93036ACA 26256.01053436  .00027210  00000-0  12148-2 0  9990
2 34856  74.0021 234.0851 0030332 293.9919 123.5041 15.20836860932625

Sigue COSMOS 2251 DEB en tiempo real con AllMySat

Download on the App Store